Вернуться в каталог

GJZ 01

АктивенНаукаLEO
NORAD 62290·PAYLOAD·🇨🇳 China

Запущен Dec 12, 2024 с Jiuquan Satellite Launch Center

Loading…

Ближайшие Пролёты (ближайшие 24 часа)

TLE

СвежийSource: Space-Track

Эпоха: Sep 14, 2026, 15:00 UTC

1 62290U 24238A   26257.62505183 -.00000050  00000-0  71254-4 0  9999
2 62290  59.9155  15.9366 0016507 342.8889  17.1560 13.75232860 87907

Отслеживайте GJZ 01 в реальном времени с AllMySat

Download on the App Store